Location: White Mills Observatory
(37.5374°N, 86.0303°W)
Time: 04:08:31
(UTC-04:00)

HST - Visible Passes

Search period start: 20 October 2014 00:00
Search period end: 30 October 2014 00:00
Orbit: 546 x 551 km, 28.5° (Epoch: 19 October)

Date Brightness Start Highest point End Pass type
(mag) Time Alt. Az. Time Alt. Az. Time Alt. Az.
24 Oct 3.3 20:56:35 10° SSW 20:57:28 13° S 20:57:28 13° S visible
25 Oct 2.9 20:48:49 10° SSW 20:50:41 16° S 20:50:41 16° S visible
26 Oct 2.7 20:41:11 10° SW 20:43:51 19° S 20:43:51 19° S visible
27 Oct 2.5 20:33:37 10° SW 20:36:50 21° S 20:36:59 21° S visible
28 Oct 2.4 20:26:07 10° SW 20:29:26 23° S 20:30:06 22° SSE visible
29 Oct 2.4 20:18:39 10° SW 20:22:01 23° S 20:23:11 21° SSE visible
